Theta_e
318 320 321 323 324 324 322 324 327 329 339 339 341 338 338 343 355 356 360 359 358 359 349 348 348 348 348 349 349 349 349 350 351 350 350 347 347 347 349 346 345 345 349 352
319 319 320 323 324 324 324 324 325 326 341 337 342 347 354 352 353 357 359 360 359 364 352 350 349 348 348 348 347 348 348 348 348 350 350 350 348 347 349 345 345 344 348 349
319 319 320 321 323 324 325 325 326 329 344 343 349 351 351 353 355 355 357 359 357 361 363 357 351 351 349 348 347 347 348 348 348 348 349 350 350 349 348 344 344 340 345 350
320 321 323 319 320 323 324 336 339 340 341 341 349 349 350 350 352 355 358 360 359 357 358 362 362 354 351 349 349 349 349 349 349 349 348 349 351 354 348 344 344 343 346 355
320 320 321 322 330 331 331 339 338 340 340 345 348 350 353 351 352 351 355 354 351 356 358 358 361 361 358 355 353 352 351 351 350 350 350 350 346 352 350 343 344 345 350 352
316 322 321 331 330 330 328 341 335 339 339 340 345 350 347 345 347 345 344 344 352 361 362 360 360 362 357 358 357 358 356 355 354 353 353 353 350 345 343 343 344 347 351 354
315 318 327 330 331 330 336 338 332 335 335 339 343 344 341 342 341 343 343 347 355 361 361 360 359 361 361 356 356 358 360 359 360 359 357 356 355 350 343 343 346 350 355 355
316 318 320 331 332 335 331 331 331 332 332 341 342 341 339 339 341 342 344 348 349 354 358 359 357 361 365 359 357 358 359 358 359 362 361 360 358 356 353 349 347 352 354 357
324 325 327 329 329 329 330 329 328 330 331 334 339 338 338 336 338 340 345 345 347 349 353 355 356 359 367 362 360 360 361 360 359 361 361 361 361 359 357 354 351 353 354 361
320 323 325 326 326 327 328 328 327 328 330 332 338 338 337 336 334 338 343 347 348 345 348 345 352 358 361 363 363 363 362 360 360 361 361 362 362 362 361 356 353 353 357 361
320 316 321 322 323 324 327 327 328 327 330 330 335 334 333 332 331 332 337 343 345 346 348 347 348 355 359 361 362 362 361 361 361 362 362 361 362 363 362 355 352 348 352 354
317 311 315 318 320 322 324 325 327 329 329 329 331 332 331 331 330 330 331 336 340 342 346 348 345 350 354 360 362 362 362 362 361 362 362 361 363 364 362 357 353 353 352 352
310 310 312 317 319 321 322 323 325 327 328 328 329 329 328 329 328 328 328 328 334 334 337 344 348 349 350 357 360 360 361 364 363 362 362 362 364 365 361 359 362 358 362 364
309 310 315 318 318 318 320 323 325 325 326 327 327 327 327 327 326 325 325 324 323 330 334 335 338 346 351 356 358 359 361 364 365 363 362 363 366 364 361 358 359 359 356 363
311 314 315 315 316 317 319 322 325 325 324 324 325 324 325 325 324 324 323 321 320 321 329 334 339 342 347 350 351 359 361 363 363 363 362 359 356 356 358 358 353 357 360 362
311 311 313 313 314 314 318 321 320 321 323 323 323 324 324 323 322 321 320 319 317 318 321 327 333 338 340 345 342 347 350 352 353 354 356 356 355 357 356 358 358 360 360 360
309 310 310 312 311 312 315 318 319 319 321 321 321 322 323 322 319 318 318 318 317 315 318 321 324 328 336 342 340 338 345 344 345 344 349 349 354 352 356 358 360 359 357 355
307 308 309 310 310 312 314 315 317 317 318 319 319 318 319 319 319 316 315 316 314 313 316 319 321 322 327 335 340 340 336 338 335 346 348 346 344 339 341 352 357 356 354 354
304 305 307 308 311 314 314 315 315 316 316 316 316 316 316 316 316 313 312 311 311 311 314 317 319 320 321 326 335 338 342 339 342 341 342 342 343 349 349 351 352 354 352 352
305 305 305 307 308 311 311 311 312 313 314 314 314 312 310 314 313 312 310 308 307 311 314 317 318 319 320 320 322 332 335 338 340 339 340 338 342 343 346 348 349 350 351 350
307 306 306 306 307 307 307 307 309 308 309 309 310 311 308 305 307 308 307 306 306 312 314 316 317 317 317 318 318 319 321 328 332 334 336 339 342 340 341 343 346 345 349 349
308 308 307 307 307 307 307 306 305 307 307 306 306 307 308 306 304 305 305 305 305 309 311 313 314 314 315 316 316 318 318 317 319 321 324 326 331 335 337 338 337 337 342 342
308 308 307 307 308 308 308 308 308 307 306 306 307 306 305 305 305 305 304 305 305 306 306 308 310 311 312 312 312 316 315 315 315 316 316 318 320 323 326 330 333 333 334 335
307 306 306 308 308 308 307 308 308 308 308 307 306 306 306 306 305 305 305 305 305 305 305 306 307 308 309 311 310 310 313 312 313 314 314 314 314 315 315 316 319 322 325 327
306 305 304 305 307 307 307 308 308 307 307 308 308 306 305 305 305 305 305 305 305 305 304 304 306 306 307 307 307 307 307 309 308 309 310 310 311 312 312 311 311 312 313 317
303 303 304 304 304 304 304 304 305 305 306 307 306 306 306 305 305 305 304 304 304 304 304 304 303 304 304 306 307 307 306 306 305 305 305 306 307 308 308 307 307 307 308 308
303 303 304 304 304 304 303 304 304 304 304 305 306 306 305 305 305 305 304 304 304 304 304 304 303 303 303 304 306 306 306 306 306 305 305 305 303 304 304 303 303 301 299 299
Wind_Speed
10 13 13 12 16 12 9 8 5 4 7 11 12 15 15 18 22 13 22 24 20 12 45 43 46 44 42 42 40 37 35 33 31 27 23 23 24 22 19 17 15 13 13 10
7 12 13 13 16 14 9 10 8 8 9 12 10 15 24 17 19 18 18 23 22 22 41 49 49 46 44 42 39 36 35 31 28 26 25 24 24 23 21 17 14 11 11 9
5 9 11 9 8 9 9 7 6 2 11 22 11 14 19 21 19 11 22 24 19 20 17 24 44 44 43 40 37 36 32 29 25 24 23 22 23 22 20 16 13 11 10 7
4 7 4 8 11 13 8 22 22 10 9 17 26 20 19 14 10 12 15 15 13 10 16 20 13 30 34 35 35 34 32 28 25 24 22 20 21 22 19 16 14 13 12 12
1 3 8 11 6 8 7 16 22 12 16 11 26 28 23 20 16 13 11 11 14 10 5 6 10 11 19 26 31 32 32 31 29 25 23 21 21 21 19 18 16 15 14 15
4 3 4 5 16 23 14 7 23 18 12 23 18 9 6 14 10 12 9 8 8 12 6 8 6 4 17 18 23 25 28 29 28 27 25 23 22 21 20 19 17 17 16 16
6 5 1 11 17 19 5 3 20 22 25 16 6 12 11 10 13 14 11 6 6 8 5 2 2 4 13 18 23 23 24 24 25 26 26 25 23 24 22 21 18 19 19 17
4 3 5 23 10 6 4 10 18 24 26 23 16 16 17 16 15 15 14 9 5 7 8 1 1 3 6 16 18 22 25 26 27 26 26 26 26 25 24 24 22 22 21 20
3 3 9 24 19 15 13 23 21 20 23 24 16 16 18 21 21 19 15 15 9 5 8 5 1 2 6 15 17 20 21 22 24 26 26 28 28 28 26 25 25 26 26 25
2 12 14 23 21 23 23 20 18 15 17 24 17 16 18 19 22 21 17 15 14 9 8 7 5 5 2 8 11 15 19 21 22 26 27 26 26 27 27 27 29 31 30 27
3 15 12 23 21 19 20 19 17 10 14 22 20 18 16 18 20 22 19 12 13 13 7 7 8 7 6 8 13 17 18 20 22 24 25 25 28 27 26 28 31 33 30 24
2 16 11 14 18 16 13 15 15 11 10 17 22 17 18 20 19 22 23 16 11 10 10 11 9 14 10 6 13 17 18 18 22 25 25 27 32 30 28 28 28 30 23 16
6 20 22 17 13 13 13 14 10 10 9 9 16 20 18 17 17 18 20 20 16 12 11 6 8 11 5 7 15 15 20 19 21 23 24 29 34 31 31 32 26 28 23 16
12 13 14 4 4 12 11 9 5 4 8 10 10 15 16 16 15 14 16 17 16 12 11 14 12 9 4 4 8 19 20 20 21 25 26 31 33 31 31 30 28 29 29 22
4 1 3 4 9 8 7 7 8 5 6 7 9 11 13 13 14 15 14 12 15 17 14 10 12 16 15 11 11 8 16 18 19 19 25 27 27 28 30 27 27 25 28 25
9 2 4 3 6 7 7 1 9 8 15 8 10 12 9 5 6 9 13 17 20 21 19 15 13 8 7 2 12 22 11 8 4 7 11 14 29 30 28 31 26 22 22 22
6 5 5 6 8 5 1 6 3 6 11 11 11 9 12 8 9 10 11 15 19 20 17 18 17 18 11 12 5 1 13 21 29 18 12 16 9 13 31 24 22 14 4 9
0 4 3 0 5 2 4 2 4 8 7 10 14 13 10 14 11 17 10 10 15 21 20 19 18 19 18 15 13 3 4 12 9 12 9 9 3 6 8 5 18 15 12 10
15 4 6 10 10 10 10 7 3 7 11 10 14 14 13 15 10 16 13 17 20 24 22 16 18 19 20 18 11 15 17 15 16 13 1 8 13 16 13 13 16 16 13 12
24 26 23 20 21 23 20 19 19 14 14 15 13 16 19 11 13 14 15 22 24 19 19 22 18 18 19 18 17 11 14 15 14 12 12 9 8 10 9 11 14 14 11 7
10 18 23 21 22 23 19 18 20 16 17 16 20 14 17 20 13 16 19 23 22 18 19 23 24 22 22 18 19 19 17 12 11 13 13 13 13 11 10 8 10 12 9 2
9 9 10 13 16 14 18 24 18 12 17 21 18 17 13 16 18 18 17 20 22 19 20 22 22 20 20 19 19 21 21 19 15 11 10 9 8 7 7 7 7 3 6 8
9 10 9 7 10 14 14 10 8 19 14 15 17 12 12 17 18 19 20 18 17 17 21 22 22 21 21 20 21 18 23 22 19 18 15 12 11 10 9 9 6 3 3 2
6 3 7 5 6 6 8 7 7 7 9 14 14 9 9 14 14 13 15 13 19 17 13 19 22 23 22 19 19 21 17 22 18 15 16 15 14 13 12 10 6 5 4 2
4 3 5 6 9 6 5 4 6 8 7 8 4 11 15 12 11 13 13 15 13 14 19 18 15 21 22 18 16 19 18 17 16 14 13 12 13 14 14 11 9 7 5 4
4 3 3 7 8 7 5 8 9 5 10 8 9 9 9 7 13 12 12 12 14 14 15 17 14 16 20 18 15 15 17 15 15 14 12 10 9 12 12 7 7 9 9 8
7 4 8 8 6 3 5 7 6 3 5 7 4 8 9 9 9 10 10 12 12 13 12 12 14 11 19 12 13 17 13 15 12 11 13 14 13 8 8 7 9 11 11 12
Wind_Direction
317 326 318 313 315 313 237 246 234 279 163 175 179 145 123 88 75 42 334 48 76 134 201 191 194 199 203 206 208 216 221 227 230 234 237 239 235 238 244 251 262 269 259 262
305 298 294 299 301 304 260 254 279 262 33 112 74 65 55 71 73 39 351 36 41 58 190 194 199 200 202 205 205 213 219 227 233 230 234 238 234 235 239 251 258 245 246 242
276 290 312 307 281 300 325 258 269 275 139 107 50 54 57 56 68 44 20 24 41 38 94 188 199 200 201 203 205 210 216 223 230 229 230 235 232 233 236 241 237 234 232 215
295 343 283 256 287 287 289 31 23 59 54 130 122 99 69 56 52 33 40 26 46 42 60 94 151 203 206 205 204 209 213 220 226 228 229 230 227 229 230 231 232 227 232 220
218 280 280 290 16 357 22 32 5 19 39 35 97 83 60 57 46 14 3 14 15 38 51 84 95 159 192 202 206 210 214 219 224 228 229 227 224 221 223 227 224 233 222 225
312 279 248 10 338 321 319 49 347 16 30 353 28 87 54 49 27 358 353 356 15 49 73 181 162 152 204 200 207 211 216 219 223 226 230 229 225 221 222 225 229 225 221 228
252 249 344 338 350 318 47 12 328 19 20 6 35 73 65 23 15 11 1 28 43 56 63 254 238 209 210 219 222 217 217 217 222 225 231 233 230 224 222 220 221 221 221 225
232 255 271 351 33 56 223 72 30 19 23 46 64 43 29 28 12 11 7 19 47 32 62 107 28 183 186 219 223 218 212 220 224 227 228 230 229 226 224 223 220 219 217 218
16 115 64 55 66 55 37 53 42 23 27 27 53 39 28 27 18 9 12 6 12 22 8 60 126 357 151 191 211 219 215 219 224 225 223 225 224 225 221 216 217 214 214 218
351 18 45 39 30 23 25 40 39 30 33 44 58 48 39 23 20 15 11 360 351 345 344 9 330 241 241 198 200 208 222 221 221 219 219 222 221 224 222 215 210 215 217 216
25 16 22 33 19 6 15 33 31 20 30 48 65 57 52 42 29 27 23 12 353 355 338 325 304 270 262 237 216 215 208 225 221 221 218 216 216 217 220 219 216 215 223 222
333 316 340 333 352 345 13 22 22 65 51 42 55 53 42 42 32 30 33 31 13 339 336 357 297 290 297 242 225 223 215 213 220 220 221 215 213 214 214 215 214 223 229 229
276 298 301 300 319 322 342 1 26 33 74 64 67 67 53 50 41 35 30 31 39 41 48 1 282 264 280 209 221 223 218 208 220 223 224 219 212 213 207 203 208 213 219 218
271 275 292 341 332 320 327 340 40 41 77 88 79 72 66 59 48 43 43 29 33 41 46 51 59 69 39 203 217 220 219 214 214 222 224 218 212 214 210 208 207 206 212 207
322 306 261 313 311 312 321 321 75 70 103 113 90 77 63 66 57 43 28 42 44 47 47 40 39 58 67 74 59 220 221 210 214 227 226 225 217 218 211 209 207 203 196 193
326 304 332 302 342 341 8 34 34 20 80 71 110 83 57 39 56 43 29 34 36 40 49 50 47 19 358 321 58 54 62 67 64 238 223 215 223 214 192 190 189 191 192 198
346 36 352 19 7 12 44 55 36 27 77 86 73 99 77 52 44 35 45 38 28 38 42 40 40 30 25 17 306 94 72 62 33 339 279 354 104 18 170 173 145 141 123 202
33 86 139 299 316 20 103 151 351 61 87 90 98 77 72 56 38 26 37 41 40 35 45 48 42 45 35 51 65 58 179 235 4 18 36 257 296 13 12 144 111 107 92 97
60 145 76 50 78 122 100 103 116 95 73 98 90 87 83 73 55 34 47 45 39 37 42 56 45 47 44 43 55 66 86 114 145 177 287 43 75 125 145 134 111 114 104 90
67 69 71 69 65 94 83 71 71 73 80 82 81 66 67 88 76 52 46 49 36 41 50 54 60 54 52 36 48 64 80 95 119 151 169 171 108 91 105 124 125 121 105 104
105 82 73 66 69 73 70 76 73 63 79 76 72 67 65 58 63 70 55 48 38 57 60 63 59 51 46 44 48 60 67 86 93 102 120 130 132 127 116 106 97 86 86 168
127 136 130 94 89 98 86 62 53 75 76 77 75 73 75 61 51 59 64 54 47 58 62 61 55 47 46 46 55 65 56 57 71 82 84 87 95 89 87 96 85 83 173 168
73 77 86 96 89 95 94 97 77 62 86 85 84 88 79 68 53 48 46 44 49 46 58 64 63 55 50 41 46 79 71 56 53 51 56 63 69 72 71 78 95 110 141 136
76 71 65 77 47 64 96 111 89 79 80 73 79 71 84 72 65 55 41 43 50 38 39 54 67 63 58 56 45 45 74 67 62 67 70 56 53 58 61 64 69 77 98 151
125 36 29 50 92 72 48 54 64 80 95 78 111 106 83 78 63 60 59 41 43 50 44 35 62 62 59 54 46 39 46 66 55 50 51 53 55 65 57 32 23 16 17 9
113 134 85 83 80 53 56 54 77 71 70 116 102 64 58 76 77 62 49 39 41 44 47 44 48 56 53 57 48 38 44 56 53 39 32 40 71 84 76 66 19 2 5 10
75 62 147 91 88 58 65 57 42 30 42 85 55 83 63 89 74 58 50 46 44 36 33 32 26 60 43 43 65 50 52 40 42 35 26 29 43 63 62 24 10 18 18 16